Regional Weather Roundup
Issued by NWS

Home | Current Version | Previous Version | Graphics & Text | Print | Product List | Glossary On
Versions: 1 2 3 4 5 6 7 8 9 10 11 12 13 14 15 16 17 18 19 20 21 22 23 24 25 26 27 28 29 30 31 32 33 34 35 36 37 38 39 40 41 42 43 44 45 46 47 48 49 50
000
ASUS43 KLSX 300410
RWRMO

WEATHER SUMMARY FOR MISSOURI
NATIONAL WEATHER SERVICE SPRINGFIELD MO
1100 PM CDT SAT AUG 29 2015

NOTE: "FAIR" INDICATES FEW OR NO CLOUDS BELOW 12,000 FEET WITH NO
       SIGNIFICANT WEATHER AND/OR OBSTRUCTIONS TO VISIBILITY.
       CURRENT SKY AND/OR WEATHER CONDITIONS ARE NOT AVAILABLE FOR
       CHILLICOTHE AND FARMINGTON.

MOZ001>031-035>038-043-044-053-054-300500-
...NORTHERN AND WESTERN MISSOURI...

CITY           SKY/WX    TMP DP  RH WIND       PRES   REMARKS
KANSAS CTY INT MOCLDY    66  64  93 NE7       30.05R
KANSAS C DTWN  CLOUDY    72  67  84 N5        30.04R
LEE`S SUMMIT   MOCLDY    71  66  84 NE8       30.05R
ST JOSEPH      MOCLDY    61  60  97 NE3       30.05S
CHILLICOTHE      N/A     71  68  90 N3        30.05R
KIRKSVILLE     PTCLDY    68  66  93 N3        30.05S FOG

$$
MOZ066>068-077>081-088>096-101>105-300500-
...SOUTHWEST MISSOURI...

CITY           SKY/WX    TMP DP  RH WIND       PRES   REMARKS
SPRINGFIELD    MOCLDY    73  67  81 CALM      30.03R
JOPLIN         MOCLDY    73  70  90 N3        30.01R

$$
MOZ032>034-039>042-045>050-055>058-069>072-300500-
...CENTRAL MISSOURI...

CITY           SKY/WX    TMP DP  RH WIND       PRES   REMARKS
COLUMBIA       PTCLDY    73  69  87 E3        30.03S
JEFFERSON CITY CLEAR     73  69  87 CALM      30.01S
ROLLA          MOCLDY    69  66  90 SW6       30.03S
SEDALIA        CLOUDY    73  69  87 CALM      30.03S
WHITEMAN AFB   MOCLDY    72  72  99 NE3       30.01S
WARRENSBURG    CLOUDY    72  70  94 NW3       30.02S
OSAGE BEACH    PTCLDY    72  66  83 E3        30.03S

$$
MOZ051-052-059>065-300500-
...EAST CENTRAL MISSOURI...

CITY           SKY/WX    TMP DP  RH WIND       PRES   REMARKS
ST LOUIS INTL  MOCLDY    79  68  69 S3        30.02F
SPIRIT OF STL  CLOUDY    74  71  91 CALM      30.01S
ST CHARLES     PTCLDY    72  69  90 E5        30.00F

$$
MOZ072>076-082>087-097>100-106>115-300500-
...SOUTH CENTRAL AND SOUTHEAST MISSOURI...

CITY           SKY/WX    TMP DP  RH WIND       PRES   REMARKS
CAPE GIRARDEAU CLOUDY    72  70  93 SE3       30.04R
FARMINGTON     CLOUDY    72  70  94 SE5       30.07F
POPLAR BLUFF   CLOUDY    72  69  90 CALM      30.02S
WEST PLAINS    CLOUDY    69  64  84 CALM      30.07S

$$


USA.gov is the U.S. government's official web portal to all federal, state and local government web resources and services.